Regional Weather Roundup
Issued by NWS

Home | Current Version | Previous Version | Text Only | Print | Product List | Glossary Off
Versions: 1 2 3 4 5 6 7 8 9 10 11 12 13 14 15 16 17 18 19 20 21 22 23 24 25 26 27 28 29 30 31 32 33 34 35 36 37 38 39 40 41 42 43 44 45 46 47 48 49 50

520
ASUS43 KIND 231609
RWRIN

WEATHER ROUNDUP FOR INDIANA
NATIONAL WEATHER SERVICE INDIANAPOLIS IN
1200 PM EDT FRI JUN 23 2017

NOTE: "FAIR" INDICATES FEW OR NO CLOUDS BELOW 12,000 FEET WITH NO
SIGNIFICANT WEATHER AND/OR OBSTRUCTIONS TO VISIBILITY.

* - STATION DOES NOT REPORT WEATHER SUCH AS PRECIPITATION OR FOG.

+ - STATION NOT QUALITY CONTROLLED BY THE NATIONAL WEATHER SERVICE.
    USE DATA WITH CAUTION...ESPECIALLY DEWPOINT AND RELATIVE
    HUMIDITY OBSERVATIONS.

INZ001>003-010>013-019-020-231700-
NORTHWEST INDIANA

CITY           SKY/WX    TMP DP  RH WIND       PRES   REMARKS
GARY /AIRPORT/ CLOUDY    70  64  83 N12       29.70R
KNOX *+        CLOUDY    66  66 100 NW14      29.66S
LA PORTE +     CLOUDY    68  65  89 N13       29.66F
MICHIGAN CITY+ PTSUNNY   66  66 100 N8        29.69R
MONTICELLO +   CLOUDY    70  67  88 NW6       29.65S
RENSSELAER +   CLOUDY    70  66  88 N5        29.66S
VALPARAISO     CLOUDY    70  65  84 N9G20     29.67S

$$

LMZ046-743>745-231700-
SOUTHERN LAKE MICHIGAN

STATION/POSITION TIME  TEMP    WIND        PRES    WAVE
                       AIR SEA DIR/SP/G            HT
                 (UTC) (F)     (DEG/KT/KT) (MB)    (FT)
BURNS HARBOR     1540   66     360/  7/  9 1005.8F
MICHIGAN CITY    1540   66     330/ 12/ 12   N/A
5NW MICH CITY    1600   66 68  330/ 12/ 16   N/A     1

$$

INZ004-005-014>016-021>024-231700-
NORTH CENTRAL INDIANA

CITY           SKY/WX    TMP DP  RH WIND       PRES   REMARKS
ELKHART        PTSUNNY   70  64  83 NW9       29.65F
GOSHEN         MOSUNNY   71  63  75 NW13      29.64F
LOGANSPORT +   CLOUDY    72  64  78 CALM      29.66F
PERU/GRISSOM   PTSUNNY   72  69  89 S3        29.64F
ROCHESTER +    LGT RAIN  72  68  88 NW10      29.65F
SOUTH BEND     CLOUDY    67  65  93 N12       29.66F
WARSAW +       LGT RAIN  72  66  83 NW10      29.64F

$$

INZ006>009-017-018-025>027-231700-
NORTHEAST INDIANA

CITY           SKY/WX    TMP DP  RH WIND       PRES   REMARKS
AUBURN +       CLOUDY    77  64  65 W7        29.65S
FORT WAYNE     CLOUDY    74  66  76 SW10      29.66R
HUNTINGTON +   CLOUDY    72  69  92 SW6       29.67S
KENDALLVILLE + MOSUNNY  N/A N/A N/A W10       29.65S

$$

INZ028-029-035-036-043>045-051>053-231700-
WEST CENTRAL INDIANA

CITY           SKY/WX    TMP DP  RH WIND       PRES   REMARKS
CRAWFORDSVL +  RAIN      67  67 100 S6        29.70F
GREENCASTLE +  HVY RAIN  73  72  94 SW6       29.72S VSB 1
LAFAYETTE      CLOUDY    69  69 100 SE3       29.65F
TERRE HAUTE    LGT RAIN  76  72  87 SW9G20    29.71S

$$

INZ030>032-037>040-046>048-054>057-064-065-231700-
CENTRAL INDIANA

CITY           SKY/WX    TMP DP  RH WIND       PRES   REMARKS
CP ATTERBURY + LGT RAIN  73  70  88 SW9G17    29.73F
COLUMBUS       LGT RAIN  73  72  94 SW13      29.74S
FRANKFORT +    CLOUDY    71  69  94 SW6       29.70F
GREENWOOD *+   CLOUDY    74  72  95 S15G21    29.73R
INDIANAPOLIS   CLOUDY    71  66  84 N13       29.72R
-EAGLE CREEK   HVY RAIN  69  66  90 N7        29.70F VSB 1
KOKOMO +       CLOUDY    71  68  90 S10       29.68F
MARION +       RAIN      70  66  88 S6        29.70S
MT COMFORT *+  CLOUDY    70  68  94 NW15      29.74R
SHELBYVILLE    CLOUDY    76  70  82 SW17G24   29.71S
ZIONSVILLE +   HVY RAIN  66  65  97 S5        29.72F

$$

INZ033-034-041-042-049-050-058-059-231700-
EAST CENTRAL INDIANA

CITY           SKY/WX    TMP DP  RH WIND       PRES   REMARKS
MUNCIE         RAIN      69  66  90 CALM      29.73R FOG
RICHMOND +     LGT RAIN  72  70  94 SW20      29.75R

$$

INZ060-061-067>069-081>083-085>088-231700-
SOUTHWEST INDIANA

CITY           SKY/WX    TMP DP  RH WIND       PRES   REMARKS
EVANSVILLE     HVY RAIN  74  72  93 S13       29.72F FOG
HUNTINGBURG *+ LGT RAIN  75  73  94 S10       29.75S FOG
WASHINGTON +   RAIN      73  71  93 S15       29.71F

$$

INZ062-063-066-070>080-084-089>092-231700-
SOUTH CENTRAL AND SOUTHEAST INDIANA

CITY           SKY/WX    TMP DP  RH WIND       PRES   REMARKS
BEDFORD +      CLOUDY    73  70  88 S6        29.74F
BLOOMINGTON    LGT RAIN  74  70  87 S10       29.72F
MADISON *+     PTSUNNY   81  72  74 SW12      29.78F
NORTH VERNON + DRIZZLE   73  72  94 SW13      29.76F
SEYMOUR +      DRIZZLE   77  75  94 SW9       29.75F

$$





USA.gov is the U.S. government's official web portal to all federal, state and local government web resources and services.